period_start,C,m1,H,J0,J1,J2,J3,J4,J5,JA,JB,JC,JD,JJ,JK,JN,#
2015-12-18 00:02:45,0.20,11.56,0.00,11.98,16.24,20.16,15.40,51.59,1021.99,2069.99,1071.48,1450.17,1627.06,600.30,622.53,38.43,0000 0000 0000 0000 000000
2015-12-18 00:07:47,0.07,11.56,0.00,11.98,16.22,20.14,15.28,51.47,1022.08,2069.99,1070.95,1449.90,1626.56,600.38,622.67,38.48,0000 0000 0000 0000 000000
2015-12-18 00:12:48,0.17,11.57,0.00,11.97,16.22,20.15,15.28,51.61,1022.06,2069.99,1070.15,1449.10,1625.98,600.05,622.51,38.53,0000 0000 0000 0000 000000
2015-12-18 00:17:49,0.13,11.57,0.00,11.95,16.21,20.13,15.34,51.67,1022.03,2069.99,1069.66,1448.82,1625.18,600.35,622.94,38.58,0000 0000 0000 0000 000000
2015-12-18 00:22:51,0.12,11.58,0.00,11.97,16.20,20.19,15.33,51.43,1022.00,2069.99,1069.03,1448.07,1624.79,600.21,622.52,38.63,0000 0000 0000 0000 000000
2015-12-18 00:27:52,0.15,11.59,0.00,11.97,16.19,20.14,15.32,51.40,1022.04,2069.99,1068.57,1447.69,1624.03,600.10,622.51,38.68,0000 0000 0000 0000 000000
2015-12-18 00:32:54,0.12,11.60,0.00,11.98,16.19,20.13,15.36,51.42,1022.02,2069.99,1067.97,1447.02,1623.44,600.52,622.86,38.73,0000 0000 0000 0000 000000
2015-12-18 00:37:55,0.18,11.60,0.00,11.98,16.19,20.15,15.39,51.67,1022.03,2069.99,1067.25,1446.48,1622.78,600.46,622.89,38.78,0000 0000 0000 0000 000000
2015-12-18 00:42:57,0.13,11.61,0.00,11.98,16.19,20.15,15.35,51.66,1022.03,2069.99,1066.55,1445.99,1622.03,600.27,622.74,38.83,0000 0000 0000 0000 000000
2015-12-18 00:47:58,0.14,11.62,0.00,11.98,16.19,20.18,15.41,51.83,1022.05,2070.00,1066.00,1445.23,1621.46,600.55,622.96,38.88,0000 0000 0000 0000 000000
2015-12-18 00:52:59,0.12,11.63,0.00,11.96,16.19,20.11,15.31,51.71,1022.02,2070.00,1065.36,1444.88,1620.94,600.04,622.50,38.93,0000 0000 0000 0000 000000
2015-12-18 00:58:01,0.12,11.63,0.00,11.95,16.19,20.12,15.34,51.65,1022.02,2070.00,1064.95,1444.10,1620.12,600.42,622.84,38.98,0000 0000 0000 0000 000000
2015-12-18 01:03:02,0.16,11.64,0.00,11.94,16.19,20.14,15.23,51.73,1022.01,2070.00,1064.14,1443.79,1619.63,599.96,622.35,39.04,0000 0000 0000 0000 000000
2015-12-18 01:08:03,0.15,11.65,0.00,11.94,16.19,20.10,15.34,51.87,1022.03,2070.00,1063.60,1443.05,1619.02,600.50,622.98,39.09,0000 0000 0000 0000 000000
2015-12-18 01:13:04,0.15,11.65,0.00,11.95,16.18,20.12,15.29,51.77,1022.10,2070.01,1062.92,1442.59,1618.32,600.18,622.62,39.14,0000 0000 0000 0000 000000
2015-12-18 01:18:05,0.12,11.66,0.00,11.94,16.18,20.10,15.35,51.89,1022.19,2070.01,1062.13,1442.01,1617.89,600.14,622.70,39.19,0000 0000 0000 0000 000000
2015-12-18 01:23:07,0.12,11.67,0.00,11.94,16.18,20.13,15.32,51.85,1022.39,2070.02,1061.91,1441.52,1617.08,600.06,622.74,39.24,0000 0000 0000 0000 000000
2015-12-18 01:28:08,0.14,11.68,0.00,11.93,16.18,20.16,15.25,51.96,1022.24,2070.02,1061.13,1441.00,1616.58,599.79,622.32,39.29,0000 0000 0000 0000 000000
2015-12-18 01:33:10,0.09,11.68,0.00,11.93,16.18,20.13,15.27,51.77,1022.31,2070.01,1060.89,1440.44,1616.00,600.08,622.69,39.34,0000 0000 0000 0000 000000
2015-12-18 01:38:11,0.15,11.69,0.00,11.92,16.18,20.12,15.30,51.87,1022.19,2070.01,1060.11,1440.01,1615.33,599.99,622.53,39.39,0000 0000 0000 0000 000000
2015-12-18 01:43:12,0.12,11.69,0.00,11.92,16.18,20.16,15.30,51.58,1022.19,2070.02,1059.75,1439.46,1614.90,600.03,622.63,39.44,0000 0000 0000 0000 000000
2015-12-18 01:48:13,0.12,11.70,0.00,11.91,16.17,20.15,15.31,51.73,1022.00,2070.01,1059.04,1438.98,1614.08,600.16,622.74,39.49,0000 0000 0000 0000 000000
2015-12-18 01:53:15,0.19,11.71,0.00,11.91,16.17,20.11,15.29,51.73,1022.01,2070.02,1058.54,1438.25,1613.65,600.17,622.66,39.54,0000 0000 0000 0000 000000
2015-12-18 01:58:16,0.06,11.72,0.00,11.91,16.17,20.10,15.28,51.77,1022.01,2070.02,1057.96,1437.90,1613.00,600.41,622.94,39.59,0000 0000 0000 0000 000000
2015-12-18 02:03:17,0.21,11.72,0.00,11.89,16.17,20.09,15.34,51.77,1022.00,2070.00,1057.20,1437.13,1612.39,600.28,622.88,39.64,0000 0000 0000 0000 000000
2015-12-18 02:08:19,0.04,11.73,0.00,11.90,16.17,20.07,15.28,51.73,1022.00,2070.01,1056.96,1436.87,1611.86,600.00,622.58,39.69,0000 0000 0000 0000 000000
2015-12-18 02:13:20,0.20,11.74,0.00,11.93,16.17,20.10,15.32,51.54,1022.01,2070.01,1056.21,1436.08,1611.07,600.36,622.92,39.74,0000 0000 0000 0000 000000
2015-12-18 02:18:21,0.11,11.74,0.00,11.92,16.16,20.12,15.31,51.67,1022.05,2070.03,1055.80,1435.72,1610.46,599.83,622.40,39.79,0000 0000 0000 0000 000000
2015-12-18 02:23:23,0.14,11.75,0.00,11.90,16.15,20.07,15.21,51.40,1022.27,2070.02,1055.03,1435.02,1609.92,599.69,622.37,39.84,0000 0000 0000 0000 000000
2015-12-18 02:28:24,0.17,11.76,0.00,11.90,16.14,20.10,15.39,51.71,1022.38,2070.04,1054.58,1434.60,1609.16,600.21,622.90,39.89,0000 0000 0000 0000 000000
2015-12-18 02:33:25,0.07,11.77,0.00,11.89,16.14,20.03,15.34,51.46,1022.43,2070.05,1054.01,1434.02,1608.88,600.02,622.72,39.94,0000 0000 0000 0000 000000
2015-12-18 02:38:26,0.15,11.77,0.00,11.89,16.14,20.05,15.33,51.58,1022.45,2070.03,1053.57,1433.69,1608.09,599.94,622.76,39.99,0000 0000 0000 0000 000000
2015-12-18 02:43:28,0.10,11.78,0.00,11.89,16.13,20.10,15.35,51.61,1022.48,2070.06,1053.01,1433.04,1607.72,600.13,622.96,40.05,0000 0000 0000 0000 000000
2015-12-18 02:48:29,0.15,11.78,0.00,11.88,16.12,20.07,15.30,51.50,1022.48,2070.05,1052.43,1432.75,1607.02,600.32,623.10,40.10,0000 0000 0000 0000 000000
2015-12-18 02:53:30,0.11,11.79,0.00,11.85,16.12,20.04,15.36,51.52,1022.48,2070.07,1051.99,1432.04,1606.42,600.27,623.15,40.15,0000 0000 0000 0000 000000
2015-12-18 02:58:32,0.16,11.80,0.00,11.85,16.11,20.03,15.31,51.61,1022.48,2070.12,1051.39,1431.69,1605.94,600.21,623.15,40.20,0000 0000 0000 0000 000000
2015-12-18 03:03:33,0.11,11.81,0.00,11.88,16.09,20.04,15.34,51.67,1022.48,2070.11,1050.98,1431.01,1605.12,600.52,623.34,40.25,0000 0000 0000 0000 000000
2015-12-18 03:08:35,0.19,11.81,0.00,11.87,16.09,20.04,15.28,51.52,1022.48,2070.10,1050.22,1430.44,1604.65,600.30,623.24,40.30,0000 0000 0000 0000 000000
2015-12-18 03:13:36,0.11,11.82,0.00,11.87,16.09,20.00,15.35,51.59,1022.48,2070.22,1049.79,1430.00,1604.02,600.25,623.15,40.35,0000 0000 0000 0000 000000
2015-12-18 03:18:37,0.14,11.83,0.00,11.85,16.07,20.02,15.34,51.46,1022.48,2070.27,1049.07,1429.59,1603.59,600.00,622.91,40.40,0000 0000 0000 0000 000000
2015-12-18 03:23:38,0.13,11.83,0.00,11.85,16.07,19.96,15.33,51.73,1022.50,2070.38,1048.73,1429.00,1603.00,600.02,623.00,40.45,0000 0000 0000 0000 000000
2015-12-18 03:28:39,0.15,11.84,0.00,11.84,16.07,19.99,15.29,51.83,1022.50,2070.32,1048.03,1428.52,1602.36,599.94,622.99,40.50,0000 0000 0000 0000 000000
2015-12-18 03:33:41,0.13,11.85,0.00,11.85,16.05,20.02,15.32,51.83,1022.53,2070.21,1047.43,1427.99,1601.76,600.15,622.96,40.55,0000 0000 0000 0000 000000
2015-12-18 03:38:42,0.18,11.86,0.00,11.83,16.04,20.02,15.28,51.76,1022.60,2070.43,1046.91,1427.31,1601.04,599.61,622.67,40.60,0000 0000 0000 0000 000000
2015-12-18 03:43:43,0.13,11.86,0.00,11.80,16.04,20.04,15.40,51.92,1022.70,2070.59,1046.22,1426.98,1600.62,599.87,623.19,40.65,0000 0000 0000 0000 000000
2015-12-18 03:48:44,0.11,11.87,0.00,11.80,16.04,19.99,15.26,51.79,1022.80,2070.65,1045.91,1426.28,1600.01,599.83,623.10,40.70,0000 0000 0000 0000 000000
2015-12-18 03:53:45,0.18,11.88,0.00,11.81,16.03,19.99,15.33,51.74,1022.81,2070.86,1045.12,1425.99,1599.43,599.85,623.09,40.75,0000 0000 0000 0000 000000
2015-12-18 03:58:46,0.15,11.89,0.00,11.78,16.02,20.00,15.40,51.88,1022.81,2070.94,1044.69,1425.40,1599.00,600.50,623.79,40.80,0000 0000 0000 0000 000000
2015-12-18 04:03:48,0.10,11.89,0.00,11.78,16.02,19.96,15.37,51.83,1022.89,2070.96,1044.03,1424.99,1598.43,599.73,622.98,40.85,0000 0000 0000 0000 000000
2015-12-18 04:08:48,0.13,11.90,0.00,11.77,16.02,19.95,15.34,51.83,1022.87,2070.98,1043.71,1424.58,1597.99,600.23,623.66,40.90,0000 0000 0000 0000 000000
2015-12-18 04:13:50,0.12,11.91,0.00,11.80,16.01,19.97,15.33,52.16,1022.87,2070.98,1043.02,1424.02,1597.36,600.43,623.84,40.96,0000 0000 0000 0000 000000
2015-12-18 04:18:51,0.11,11.91,0.00,11.81,16.00,19.93,15.34,52.17,1022.84,2070.97,1042.71,1423.64,1596.92,600.02,623.24,41.01,0000 0000 0000 0000 000000
2015-12-18 04:23:53,0.13,11.92,0.00,11.76,16.00,19.92,15.24,51.99,1022.83,2070.97,1042.04,1423.03,1596.14,599.99,623.28,41.06,0000 0000 0000 0000 000000
2015-12-18 04:28:54,0.10,11.92,0.00,11.75,16.00,19.90,15.27,51.86,1022.80,2070.98,1041.65,1422.76,1595.93,599.56,622.90,41.11,0000 0000 0000 0000 000000
2015-12-18 04:33:55,0.15,11.93,0.00,11.76,16.00,19.93,15.30,51.93,1022.94,2070.99,1041.02,1422.06,1595.14,599.72,623.05,41.16,0000 0000 0000 0000 000000
2015-12-18 04:38:57,0.10,11.93,0.00,11.76,16.01,19.97,15.33,51.91,1022.96,2070.98,1040.65,1421.81,1594.74,600.33,623.78,41.21,0000 0000 0000 0000 000000
2015-12-18 04:43:58,0.13,11.95,0.00,11.78,16.01,19.95,15.30,51.94,1022.96,2070.98,1040.03,1421.06,1594.04,599.88,623.12,41.26,0000 0000 0000 0000 000000
2015-12-18 04:49:00,0.05,11.95,0.00,11.77,16.01,19.93,15.32,51.67,1022.96,2070.98,1039.90,1420.94,1593.65,599.73,623.11,41.31,0000 0000 0000 0000 000000
2015-12-18 04:54:01,0.18,11.96,0.00,11.77,16.02,19.94,15.35,51.79,1022.96,2070.98,1039.13,1420.17,1593.01,600.25,623.49,41.36,0000 0000 0000 0000 000000
2015-12-18 04:59:02,0.04,11.96,0.00,11.79,16.02,19.97,15.27,51.73,1022.96,2070.98,1038.97,1419.98,1592.58,599.78,623.11,41.41,0000 0000 0000 0000 000000
2015-12-18 05:04:04,0.19,11.97,0.00,11.77,16.01,19.95,15.29,51.65,1022.96,2070.96,1038.25,1419.26,1592.01,599.83,623.26,41.46,0000 0000 0000 0000 000000
2015-12-18 05:09:05,0.05,11.97,0.00,11.77,16.01,19.98,15.25,51.55,1022.95,2070.97,1038.00,1419.00,1591.56,599.34,622.80,41.51,0000 0000 0000 0000 000000
2015-12-18 05:14:06,0.15,11.98,0.00,11.77,16.01,19.96,15.32,51.67,1022.96,2070.97,1037.51,1418.60,1591.01,599.99,623.33,41.56,0000 0000 0000 0000 000000
2015-12-18 05:19:07,0.10,11.98,0.00,11.78,16.00,19.93,15.34,51.92,1022.96,2070.98,1037.00,1418.03,1590.54,600.16,623.59,41.61,0000 0000 0000 0000 000000
2015-12-18 05:24:09,0.13,11.99,0.00,11.74,15.99,19.94,15.29,51.82,1022.97,2070.96,1036.51,1417.73,1590.01,599.79,623.16,41.66,0000 0000 0000 0000 000000
2015-12-18 05:29:10,0.13,12.00,0.00,11.73,15.99,19.90,15.31,52.02,1022.98,2070.97,1035.87,1417.04,1589.48,600.17,623.68,41.71,0000 0000 0000 0000 000000
2015-12-18 05:34:11,0.12,12.01,0.00,11.74,15.99,19.95,15.44,51.84,1022.99,2070.98,1035.07,1416.85,1589.00,600.34,623.86,41.76,0000 0000 0000 0000 000000
2015-12-18 05:39:13,0.13,12.01,0.00,11.72,15.99,20.00,15.32,51.94,1023.02,2070.98,1034.83,1416.10,1588.46,599.80,623.24,41.81,0000 0000 0000 0000 000000
2015-12-18 05:44:14,0.10,12.02,0.00,11.74,15.99,19.98,15.32,52.04,1023.08,2070.99,1034.06,1415.93,1588.00,600.02,623.65,41.86,0000 0000 0000 0000 000000
2015-12-18 05:49:16,0.19,12.02,0.00,11.74,15.99,19.92,15.38,51.99,1023.12,2070.99,1033.66,1415.17,1587.32,600.05,623.48,41.92,0000 0000 0000 0000 000000
2015-12-18 05:54:17,0.13,12.03,0.00,11.74,15.99,19.95,15.33,52.08,1023.28,2070.98,1033.01,1414.62,1586.68,599.58,623.18,41.97,0000 0000 0000 0000 000000
2015-12-18 05:59:19,0.15,12.04,0.00,11.75,16.01,19.92,15.37,52.15,1023.30,2070.99,1032.31,1414.00,1585.92,600.07,623.76,42.02,0000 0000 0000 0000 000000
2015-12-18 06:04:20,0.14,12.05,0.00,11.76,16.02,19.94,15.26,51.94,1023.36,2070.98,1032.00,1413.20,1585.07,599.76,623.56,42.07,0000 0000 0000 0000 000000
2015-12-18 06:09:21,0.19,12.05,0.00,11.75,16.02,20.05,15.35,52.07,1023.38,2070.98,1031.48,1412.61,1584.39,599.94,623.60,42.12,0000 0000 0000 0000 000000
2015-12-18 06:14:23,0.06,12.06,0.00,11.77,16.04,19.98,15.31,52.14,1023.44,2070.97,1031.01,1412.02,1583.86,599.79,623.57,42.17,0000 0000 0000 0000 000000
2015-12-18 06:19:24,0.18,12.07,0.00,11.74,16.04,19.99,15.31,52.01,1023.45,2070.97,1030.57,1411.53,1583.08,599.77,623.52,42.22,0000 0000 0000 0000 000000
2015-12-18 06:24:25,0.08,12.08,0.00,11.74,16.04,20.02,15.36,52.03,1023.45,2070.93,1030.01,1411.02,1582.67,600.06,623.74,42.27,0000 0000 0000 0000 000000
2015-12-18 06:29:27,0.12,12.08,0.00,11.74,16.04,19.98,15.30,52.03,1023.45,2070.94,1029.67,1410.66,1582.02,599.83,623.59,42.32,0000 0000 0000 0000 000000
2015-12-18 06:34:28,0.13,12.09,0.00,11.74,16.04,19.98,15.30,52.11,1023.45,2070.94,1029.02,1410.02,1581.46,599.64,623.32,42.37,0000 0000 0000 0000 000000
2015-12-18 06:39:29,0.16,12.10,0.00,11.75,16.04,19.94,15.33,52.02,1023.45,2070.95,1028.38,1409.65,1581.00,600.05,623.76,42.42,0000 0000 0000 0000 000000
2015-12-18 06:44:31,0.09,12.10,0.00,11.72,16.02,19.95,15.39,51.92,1023.45,2070.96,1028.00,1409.02,1580.31,600.31,624.12,42.47,0000 0000 0000 0000 000000
2015-12-18 06:49:32,0.15,12.11,0.00,11.72,16.02,19.95,15.35,52.02,1023.45,2070.96,1027.40,1408.67,1579.98,599.80,623.64,42.52,0000 0000 0000 0000 000000
2015-12-18 06:54:33,0.10,12.12,0.00,11.71,16.02,19.98,15.38,52.10,1023.45,2070.97,1027.00,1408.03,1579.25,600.33,624.09,42.57,0000 0000 0000 0000 000000
2015-12-18 06:59:34,0.15,12.12,0.00,11.71,16.02,19.95,15.35,51.96,1023.45,2070.97,1026.33,1407.74,1578.88,600.30,623.92,42.62,0000 0000 0000 0000 000000
2015-12-18 07:04:36,0.11,12.13,0.00,11.74,16.01,19.93,15.33,51.98,1023.47,2070.97,1025.96,1407.04,1578.12,600.04,623.83,42.67,0000 0000 0000 0000 000000
2015-12-18 07:09:37,0.11,12.13,0.00,11.72,15.99,19.92,15.36,52.09,1023.47,2070.97,1025.19,1406.92,1577.90,600.32,624.06,42.72,0000 0000 0000 0000 000000
2015-12-18 07:14:39,0.13,12.14,0.00,11.72,15.99,19.95,15.31,52.02,1023.47,2070.99,1024.97,1406.15,1577.12,599.73,623.47,42.77,0000 0000 0000 0000 000000
2015-12-18 07:19:40,0.07,12.14,0.00,11.72,15.99,19.91,15.33,52.10,1023.48,2070.98,1024.60,1405.99,1576.89,600.05,623.86,42.83,0000 0000 0000 0000 000000
2015-12-18 07:24:41,0.15,12.15,0.00,11.72,15.99,19.92,15.35,52.08,1023.48,2070.99,1024.02,1405.46,1576.08,600.13,623.86,42.88,0000 0000 0000 0000 000000
2015-12-18 07:29:43,0.08,12.16,0.00,11.74,15.99,19.97,15.31,52.07,1023.47,2070.98,1023.74,1405.00,1575.87,599.71,623.53,42.93,0000 0000 0000 0000 000000
2015-12-18 07:34:44,0.16,12.16,0.00,11.73,15.99,19.87,15.30,51.86,1023.46,2070.99,1023.12,1404.54,1575.11,599.91,623.77,42.98,0000 0000 0000 0000 000000
2015-12-18 07:39:45,0.03,12.17,0.00,11.71,15.99,19.88,15.34,51.78,1023.45,2070.99,1023.00,1404.02,1574.91,600.23,623.98,43.03,0000 0000 0000 0000 000000
2015-12-18 07:44:47,0.14,12.17,0.00,11.72,15.99,19.94,15.34,52.01,1023.45,2070.99,1022.57,1403.82,1574.14,599.59,623.38,43.08,0000 0000 0000 0000 000000
2015-12-18 07:49:48,0.10,12.18,0.00,11.73,15.98,19.96,15.39,51.92,1023.47,2070.99,1022.02,1403.07,1573.89,600.26,624.01,43.13,0000 0000 0000 0000 000000
2015-12-18 07:54:50,0.12,12.18,0.00,11.74,15.97,19.94,15.39,52.00,1023.47,2070.99,1021.59,1402.92,1573.10,600.10,623.85,43.18,0000 0000 0000 0000 000000
2015-12-18 07:59:51,0.12,12.19,0.00,11.72,15.97,19.93,15.36,52.01,1023.47,2070.98,1021.03,1402.17,1572.95,599.86,623.67,43.23,0000 0000 0000 0000 000000
2015-12-18 08:04:52,0.05,12.20,0.00,11.72,15.97,19.90,15.36,52.03,1023.46,2070.99,1020.96,1402.00,1572.21,600.06,623.91,43.28,0000 0000 0000 0000 000000
2015-12-18 08:09:54,0.17,12.20,0.00,11.74,15.97,19.88,15.38,51.77,1023.46,2070.99,1020.36,1401.54,1571.98,600.17,623.85,43.33,0000 0000 0000 0000 000000
2015-12-18 08:14:55,0.07,12.21,0.00,11.74,15.96,19.87,15.37,52.01,1023.57,2070.99,1020.00,1401.02,1571.35,600.64,624.52,43.38,0000 0000 0000 0000 000000
2015-12-18 08:19:56,0.08,12.21,0.00,11.74,15.95,19.84,15.36,51.83,1023.68,2070.99,1019.65,1400.94,1571.00,600.07,623.98,43.43,0000 0000 0000 0000 000000
2015-12-18 08:24:58,0.16,12.22,0.00,11.73,15.94,19.87,15.35,51.99,1023.74,2070.99,1018.94,1400.19,1570.50,599.88,623.93,43.48,0000 0000 0000 0000 000000
2015-12-18 08:29:59,0.11,12.23,0.00,11.72,15.94,19.90,15.24,51.96,1023.83,2070.99,1018.17,1399.99,1570.02,599.63,623.65,43.53,0000 0000 0000 0000 000000
2015-12-18 08:35:00,0.04,12.23,0.00,11.72,15.94,19.88,15.33,51.97,1023.85,2070.99,1017.99,1399.76,1569.87,599.89,623.99,43.58,0000 0000 0000 0000 000000
2015-12-18 08:40:02,0.17,12.24,0.00,11.73,15.94,19.92,15.29,52.19,1023.89,2070.99,1017.64,1399.05,1569.08,600.04,624.15,43.64,0000 0000 0000 0000 000000
2015-12-18 08:45:03,0.04,12.24,0.00,11.74,15.94,19.85,15.29,52.04,1023.91,2070.99,1017.02,1398.98,1568.97,599.89,624.00,43.69,0000 0000 0000 0000 000000
2015-12-18 08:50:04,0.13,12.25,0.00,11.74,15.94,19.98,15.33,51.97,1023.88,2070.99,1016.94,1398.39,1568.27,600.05,624.12,43.74,0000 0000 0000 0000 000000
2015-12-18 08:55:05,0.12,12.25,0.00,11.72,15.94,19.91,15.29,52.05,1023.62,2071.00,1016.17,1398.00,1567.99,599.69,623.61,43.79,0000 0000 0000 0000 000000
2015-12-18 09:00:07,0.05,12.26,0.00,11.74,15.96,19.95,15.37,52.13,1023.50,2071.00,1016.00,1397.90,1567.52,600.00,623.80,43.84,0000 0000 0000 0000 000000
2015-12-18 09:05:08,0.13,12.26,0.00,11.74,15.97,19.96,15.36,52.12,1023.48,2071.00,1015.77,1397.14,1567.01,600.08,623.88,43.89,0000 0000 0000 0000 000000
2015-12-18 09:10:09,0.09,12.27,0.00,11.74,15.97,19.90,15.39,52.15,1023.48,2071.00,1015.11,1397.00,1566.70,600.05,623.83,43.94,0000 0000 0000 0000 000000
2015-12-18 09:15:10,0.07,12.27,0.00,11.72,15.97,19.90,15.35,52.08,1023.52,2071.00,1015.00,1396.67,1566.03,600.05,624.00,43.99,0000 0000 0000 0000 000000
2015-12-18 09:20:12,0.13,12.28,0.00,11.70,15.98,19.91,15.37,52.05,1023.47,2071.00,1014.49,1396.04,1565.88,599.98,623.85,44.04,0000 0000 0000 0000 000000
2015-12-18 09:25:13,0.07,12.28,0.00,11.71,15.99,19.99,15.37,52.05,1023.48,2071.00,1014.02,1395.99,1565.13,600.26,624.25,44.09,0000 0000 0000 0000 000000
2015-12-18 09:30:14,0.08,12.28,0.00,11.74,15.99,19.90,15.32,51.98,1023.59,2071.00,1013.97,1395.45,1564.98,599.94,623.77,44.14,0000 0000 0000 0000 000000
2015-12-18 09:35:16,0.16,12.29,0.00,11.76,15.99,19.96,15.42,52.28,1023.54,2070.99,1013.18,1395.01,1564.40,600.51,624.29,44.19,0000 0000 0000 0000 000000
2015-12-18 09:40:17,0.02,12.30,0.00,11.75,15.99,19.94,15.38,52.73,1023.58,2070.99,1013.00,1394.91,1564.01,600.19,624.09,44.24,0000 0000 0000 0000 000000
2015-12-18 09:45:19,0.10,12.30,0.00,11.73,15.99,19.94,15.31,52.58,1023.60,2070.99,1012.89,1394.23,1563.83,600.00,623.85,44.29,0000 0000 0000 0000 000000
2015-12-18 09:50:20,0.13,12.31,0.00,11.73,15.99,19.93,15.33,52.40,1023.64,2070.99,1012.12,1394.00,1563.10,600.02,623.90,44.34,0000 0000 0000 0000 000000
2015-12-18 09:55:22,0.02,12.31,0.00,11.74,15.99,19.94,15.33,52.23,1023.78,2070.99,1011.99,1393.92,1562.98,599.74,623.57,44.39,0000 0000 0000 0000 000000
2015-12-18 10:00:23,0.11,12.31,0.00,11.75,15.99,19.90,15.44,52.24,1023.87,2070.99,1011.90,1393.18,1562.51,600.28,624.22,44.44,0000 0000 0000 0000 000000
2015-12-18 10:05:24,0.11,12.32,0.00,11.75,15.99,19.99,15.35,52.07,1023.92,2070.99,1011.25,1393.00,1562.02,599.51,623.64,44.49,0000 0000 0000 0000 000000
2015-12-18 10:10:26,0.02,12.32,0.00,11.75,15.99,19.95,15.34,52.07,1023.92,2070.99,1011.00,1392.96,1561.90,599.53,623.58,44.54,0000 0000 0000 0000 000000
2015-12-18 10:15:27,0.16,12.33,0.00,11.75,15.99,19.98,15.30,52.05,1023.92,2070.99,1010.78,1392.20,1561.17,599.77,623.79,44.60,0000 0000 0000 0000 000000
2015-12-18 10:20:29,0.07,12.33,0.00,11.78,15.99,19.97,15.35,52.04,1023.92,2070.99,1010.22,1392.00,1561.00,599.92,623.95,44.65,0000 0000 0000 0000 000000
2015-12-18 10:25:30,0.05,12.34,0.00,11.75,15.99,19.92,15.35,52.00,1023.93,2070.99,1010.00,1391.92,1560.59,600.13,624.11,44.70,0000 0000 0000 0000 000000
2015-12-18 10:30:31,0.11,12.34,0.00,11.74,15.99,19.96,15.33,51.96,1023.92,2070.97,1009.84,1391.20,1560.01,599.88,623.98,44.75,0000 0000 0000 0000 000000
2015-12-18 10:35:33,0.09,12.35,0.00,11.77,15.99,19.95,15.36,51.90,1023.93,2070.98,1009.06,1391.00,1559.89,599.82,623.93,44.80,0000 0000 0000 0000 000000
2015-12-18 10:40:34,0.06,12.35,0.00,11.78,15.99,19.94,15.30,51.78,1023.94,2070.98,1008.97,1390.90,1559.12,600.00,624.06,44.85,0000 0000 0000 0000 000000
2015-12-18 10:45:35,0.12,12.35,0.00,11.76,15.99,19.99,15.41,51.81,1023.91,2070.98,1008.70,1390.20,1559.00,600.52,624.52,44.90,0000 0000 0000 0000 000000
2015-12-18 10:50:36,0.08,12.36,0.00,11.76,15.98,19.91,15.29,51.72,1023.94,2070.99,1008.04,1390.00,1558.71,600.28,624.31,44.95,0000 0000 0000 0000 000000
2015-12-18 10:55:37,0.04,12.36,0.00,11.75,15.97,19.91,15.32,51.90,1023.94,2070.99,1007.98,1389.86,1558.04,599.69,623.70,45.00,0000 0000 0000 0000 000000
2015-12-18 11:00:39,0.15,12.37,0.00,11.77,15.97,19.94,15.39,52.04,1023.95,2070.99,1007.51,1389.12,1557.99,600.01,623.92,45.05,0000 0000 0000 0000 000000
2015-12-18 11:05:40,0.06,12.38,0.00,11.75,15.97,19.90,15.31,51.94,1023.95,2070.99,1007.02,1389.00,1557.54,599.73,623.93,45.10,0000 0000 0000 0000 000000
2015-12-18 11:10:42,0.08,12.38,0.00,11.74,15.97,19.86,15.28,51.94,1023.97,2070.99,1006.71,1388.93,1557.02,600.00,624.08,45.15,0000 0000 0000 0000 000000
2015-12-18 11:15:43,0.13,12.39,0.00,11.75,15.97,19.88,15.30,51.94,1023.95,2070.99,1006.06,1388.26,1556.95,600.20,624.31,45.20,0000 0000 0000 0000 000000
2015-12-18 11:20:44,0.05,12.39,0.00,11.76,15.97,19.93,15.32,52.05,1023.96,2070.99,1005.99,1388.01,1556.31,600.15,624.12,45.25,0000 0000 0000 0000 000000
2015-12-18 11:25:45,0.05,12.39,0.00,11.75,15.97,19.89,15.44,52.03,1023.96,2070.99,1005.73,1387.97,1556.01,600.35,624.57,45.30,0000 0000 0000 0000 000000
2015-12-18 11:30:46,0.15,12.40,0.00,11.74,15.97,19.91,15.32,52.03,1023.99,2070.99,1005.26,1387.51,1555.81,599.93,624.01,45.35,0000 0000 0000 0000 000000
2015-12-18 11:35:47,0.06,12.40,0.00,11.75,15.97,19.93,15.34,52.12,1023.99,2070.99,1004.97,1387.01,1555.10,600.14,624.27,45.40,0000 0000 0000 0000 000000
2015-12-18 11:40:49,0.09,12.41,0.00,11.77,15.97,19.93,15.32,52.02,1024.01,2070.99,1004.48,1386.94,1554.98,599.83,623.79,45.46,0000 0000 0000 0000 000000
2015-12-18 11:45:50,0.14,12.41,0.00,11.79,15.97,19.90,15.30,52.03,1024.00,2070.99,1004.01,1386.23,1554.44,599.75,623.72,45.51,0000 0000 0000 0000 000000
2015-12-18 11:50:52,0.02,12.42,0.00,11.79,15.97,19.88,15.31,52.01,1024.00,2070.99,1003.94,1386.00,1554.01,599.90,623.88,45.56,0000 0000 0000 0000 000000
2015-12-18 11:55:53,0.11,12.42,0.00,11.78,15.97,19.95,15.44,52.20,1023.96,2070.99,1003.25,1385.91,1553.89,600.07,624.08,45.61,0000 0000 0000 0000 000000
2015-12-18 12:00:54,0.12,12.43,0.00,11.80,15.97,19.93,15.27,52.12,1023.96,2070.99,1003.00,1385.25,1553.14,599.87,623.78,45.66,0000 0000 0000 0000 000000
2015-12-18 12:05:56,0.01,12.43,0.00,11.81,15.99,19.98,15.39,52.11,1023.96,2070.99,1002.97,1385.00,1553.00,600.30,624.13,45.71,0000 0000 0000 0000 000000
2015-12-18 12:10:57,0.14,12.43,0.00,11.78,15.99,19.94,15.34,52.16,1023.97,2070.99,1002.33,1384.93,1552.61,599.86,623.84,45.76,0000 0000 0000 0000 000000
2015-12-18 12:15:58,0.10,12.44,0.00,11.76,15.99,19.92,15.34,52.14,1024.01,2070.99,1002.01,1384.30,1552.04,599.98,624.05,45.81,0000 0000 0000 0000 000000
2015-12-18 12:21:00,0.01,12.44,0.00,11.75,15.99,19.95,15.34,52.06,1024.20,2070.99,1001.97,1384.01,1551.97,599.95,624.18,45.86,0000 0000 0000 0000 000000
2015-12-18 12:26:01,0.15,12.45,0.00,11.78,15.99,19.92,15.35,52.23,1024.38,2070.99,1001.26,1383.98,1551.32,600.14,624.42,45.91,0000 0000 0000 0000 000000
2015-12-18 12:31:02,0.08,12.45,0.00,11.82,15.99,19.93,15.33,52.16,1024.39,2070.99,1001.01,1383.45,1551.01,599.97,624.16,45.96,0000 0000 0000 0000 000000
2015-12-18 12:36:03,0.05,12.46,0.00,11.82,15.99,19.98,15.32,52.29,1024.43,2070.99,1000.81,1383.02,1550.95,600.00,624.22,46.01,0000 0000 0000 0000 000000
2015-12-18 12:41:04,0.13,12.46,0.00,11.82,16.00,19.97,15.42,52.35,1024.43,2070.98,1000.06,1382.99,1550.29,600.05,624.22,46.06,0000 0000 0000 0000 000000
2015-12-18 12:46:06,0.04,12.47,0.00,11.83,16.02,19.96,15.42,52.33,1024.42,2070.99,1000.00,1382.71,1550.01,600.08,624.31,46.11,0000 0000 0000 0000 000000
2015-12-18 12:51:07,0.04,12.47,0.00,11.82,16.02,19.95,15.35,52.22,1024.41,2070.99,999.99,1382.08,1549.97,599.58,623.80,46.16,0000 0000 0000 0000 000000